Location: Beverley
(50.2667°N, 107.9667°W)
Time: 02:01:32
(UTC+00:00)

METEOR 2-5 DEB - Visible Passes

Search period start: 10 December 2022 00:00
Search period end: 20 December 2022 00:00
Orbit: 649 x 672 km, 81.2° (Epoch: 08 December)

Date Brightness Start Highest point End Pass type
(mag) Time Alt. Az. Time Alt. Az. Time Alt. Az.
10 Dec ? 01:29:44 10° SW 01:33:56 35° WNW 01:38:10 10° N visible
11 Dec ? 00:20:53 10° S 00:25:24 68° E 00:30:00 10° NNE visible
11 Dec ? 02:01:45 10° WSW 02:04:50 17° WNW 02:07:56 10° NNW visible
12 Dec ? 00:51:25 10° SSW 00:55:53 54° WNW 01:00:25 10° N visible
12 Dec ? 23:43:10 10° SSE 23:47:28 42° E 23:51:49 10° NNE visible
13 Dec ? 01:22:44 10° WSW 01:26:33 25° WNW 01:30:24 10° N visible
14 Dec ? 00:13:09 10° SSW 00:17:43 85° W 00:22:22 10° NNE visible
14 Dec ? 01:55:17 10° W 01:57:25 13° WNW 01:59:33 10° NNW visible
15 Dec ? 00:43:53 10° SW 00:48:09 38° WNW 00:52:29 10° N visible
16 Dec ? 01:15:31 10° WSW 01:18:48 19° WNW 01:22:06 10° NNW visible
17 Dec ? 00:05:09 10° SSW 00:09:41 60° WNW 00:14:16 10° N visible
18 Dec ? 00:36:07 10° SW 00:40:05 28° WNW 00:44:05 10° N visible
19 Dec ? 01:08:10 10° W 01:10:40 14° WNW 01:13:13 10° NNW visible
